,,Stat5,,Stat1,,Stat2,,Stat3,,Stat4,,Wind1,,Wind1,
time,status,PA1M_AVG,status,PR1M_SUM,status,RH1M_AVG,status,SR1M_AVG,status,TA1M_AVG,status,W1dAve1m,status,W1sAve1m,
2001-05-05, 00:00:01,VALID,918.551,VALID,0,VALID,98.1819,VALID,-0.0169808,VALID,21.1354,VALID,186,VALID,0.614654,
2001-05-05, 00:01:00,VALID,918.547,VALID,0,VALID,98.248,VALID,0,VALID,21.1389,VALID,189,VALID,0.543708,
2001-05-05, 00:02:00,VALID,918.536,VALID,0,VALID,98.2874,VALID,0,VALID,21.1491,VALID,185,VALID,0.68099,
2001-05-05, 00:03:00,VALID,918.524,VALID,0,VALID,98.3383,VALID,0,VALID,21.1357,VALID,187,VALID,0.712582,
2001-05-05, 00:04:00,VALID,918.53,VALID,0,VALID,98.3688,VALID,-0.0169808,VALID,21.1362,VALID,192,VALID,0.781467,
2001-05-05, 00:05:00,VALID,918.531,VALID,0,VALID,98.4133,VALID,-0.0169808,VALID,21.1295,VALID,202,VALID,0.252878,
2001-05-05, 00:06:00,VALID,918.525,VALID,0,VALID,98.4425,VALID,0,VALID,21.1491,VALID,185,VALID,0.528294,
2001-05-05, 00:07:00,VALID,918.522,VALID,0,VALID,98.4171,VALID,-0.0339617,VALID,21.1359,VALID,195,VALID,0.624554,
2001-05-05, 00:08:00,VALID,918.52,VALID,0.2,VALID,98.4375,VALID,-0.0169808,VALID,21.1289,VALID,187,VALID,0.684095,
2001-05-05, 00:09:00,VALID,918.527,VALID,0,VALID,98.4553,VALID,-0.0339617,VALID,21.123,VALID,189,VALID,0.6366,
2001-05-05, 00:10:00,VALID,918.511,VALID,0,VALID,98.4731,VALID,-0.0169808,VALID,21.1362,VALID,183,VALID,0.359598,
2001-05-05, 00:11:00,VALID,918.517,VALID,0,VALID,98.4883,VALID,0,VALID,21.126,VALID,181,VALID,0.238809,
2001-05-05, 00:12:00,VALID,918.529,VALID,0,VALID,98.4909,VALID,0,VALID,21.1365,VALID,181,VALID,0.124367,
2001-05-05, 00:13:00,VALID,918.535,VALID,0,VALID,98.4794,VALID,-0.0509425,VALID,21.1295,VALID,181,VALID,0.336349,
2001-05-05, 00:14:00,VALID,918.543,VALID,0,VALID,98.487,VALID,-0.0169808,VALID,21.1198,VALID,181,VALID,0.158203,
2001-05-05, 00:15:00,VALID,918.556,VALID,0,VALID,98.5239,VALID,-0.0169808,VALID,21.1362,VALID,211,VALID,0,
2001-05-05, 00:16:00,VALID,918.535,VALID,0,VALID,98.5659,VALID,-0.0339617,VALID,21.1486,VALID,237,VALID,0,
2001-05-05, 00:17:00,VALID,918.517,VALID,0,VALID,98.5315,VALID,-0.0169808,VALID,21.1521,VALID,181,VALID,0,
2001-05-05, 00:18:00,VALID,918.499,VALID,0,VALID,98.5532,VALID,-0.0169808,VALID,21.1456,VALID,157,VALID,0,
2001-05-05, 00:19:00,VALID,918.496,VALID,0,VALID,98.557,VALID,-0.0339617,VALID,21.1459,VALID,155,VALID,0.26478,
2001-05-05, 00:20:00,VALID,918.487,VALID,0,VALID,98.5328,VALID,-0.0679233,VALID,21.1464,VALID,173,VALID,0.349301,
2001-05-05, 00:21:00,VALID,918.466,VALID,0.2,VALID,98.5303,VALID,-0.0849042,VALID,21.1362,VALID,169,VALID,0.43391,
2001-05-05, 00:22:00,VALID,918.466,VALID,0,VALID,98.5099,VALID,-0.0169808,VALID,21.1203,VALID,172,VALID,0.675223,
2001-05-05, 00:23:00,VALID,918.439,VALID,0,VALID,98.5112,VALID,-0.0339617,VALID,21.1012,VALID,166,VALID,0.580729,
2001-05-05, 00:24:00,VALID,918.437,VALID,0,VALID,98.529,VALID,-0.0339617,VALID,21.0745,VALID,176,VALID,0.461411,
2001-05-05, 00:25:00,VALID,918.423,VALID,0,VALID,98.5303,VALID,-0.0339617,VALID,21.0651,VALID,171,VALID,0.485491,
2001-05-05, 00:26:00,VALID,918.417,VALID,0,VALID,98.5697,VALID,-0.0339617,VALID,21.046,VALID,163,VALID,0.517736,
2001-05-05, 00:27:00,VALID,918.413,VALID,0,VALID,98.5875,VALID,-0.0339617,VALID,21.046,VALID,153,VALID,0.625633,
2001-05-05, 00:28:01,VALID,918.414,VALID,0,VALID,98.5875,VALID,0,VALID,21.0231,VALID,149,VALID,0.454975,
2001-05-05, 00:29:00,VALID,918.408,VALID,0,VALID,98.6218,VALID,-0.0339617,VALID,21.0298,VALID,149,VALID,0.32704,
2001-05-05, 00:30:00,VALID,918.415,VALID,0,VALID,98.674,VALID,-0.0679233,VALID,21.0497,VALID,140,VALID,0.462788,
2001-05-05, 00:31:00,VALID,918.415,VALID,0,VALID,98.6689,VALID,-0.0679233,VALID,21.0398,VALID,133,VALID,0.339949,
2001-05-05, 00:32:00,VALID,918.42,VALID,0,VALID,98.7007,VALID,0,VALID,21.0425,VALID,128,VALID,0.0971967,
2001-05-05, 00:33:00,VALID,918.421,VALID,0,VALID,98.6816,VALID,-0.0169808,VALID,21.0266,VALID,128,VALID,0,
2001-05-05, 00:34:00,VALID,918.435,VALID,0.2,VALID,98.7108,VALID,-0.0339617,VALID,21.0231,VALID,128,VALID,0,
2001-05-05, 00:35:00,VALID,918.437,VALID,0,VALID,98.7401,VALID,-0.0509425,VALID,21.0559,VALID,128,VALID,0,
2001-05-05, 00:36:00,VALID,918.426,VALID,0,VALID,98.7058,VALID,-0.0339617,VALID,21.0519,VALID,128,VALID,0,
2001-05-05, 00:37:00,VALID,918.436,VALID,0,VALID,98.7019,VALID,-0.0339617,VALID,21.0457,VALID,128,VALID,0,
2001-05-05, 00:38:01,VALID,918.428,VALID,0,VALID,98.6918,VALID,-0.0169808,VALID,21.0331,VALID,128,VALID,0,
2001-05-05, 00:39:00,VALID,918.435,VALID,0,VALID,98.707,VALID,-0.0509425,VALID,21.0427,VALID,128,VALID,0,
2001-05-05, 00:40:00,VALID,918.42,VALID,0,VALID,98.674,VALID,-0.0509425,VALID,21.0331,VALID,128,VALID,0,
2001-05-05, 00:41:00,VALID,918.432,VALID,0,VALID,98.66,VALID,-0.0509425,VALID,21.0333,VALID,128,VALID,0,
2001-05-05, 00:42:00,VALID,918.407,VALID,0,VALID,98.6791,VALID,-0.0849042,VALID,21.0395,VALID,128,VALID,0,
2001-05-05, 00:43:01,VALID,918.396,VALID,0,VALID,98.6803,VALID,-0.0509425,VALID,21.0457,VALID,128,VALID,0,
2001-05-05, 00:44:00,VALID,918.386,VALID,0,VALID,98.6867,VALID,0,VALID,21.0815,VALID,133,VALID,0,
2001-05-05, 00:45:00,VALID,918.367,VALID,0,VALID,98.5672,VALID,-0.0169808,VALID,21.0522,VALID,152,VALID,0,
2001-05-05, 00:46:00,VALID,918.344,VALID,0,VALID,98.4883,VALID,-0.0339617,VALID,21.0201,VALID,159,VALID,0,
2001-05-05, 00:47:00,VALID,918.324,VALID,0,VALID,98.4425,VALID,-0.0679233,VALID,20.9975,VALID,171,VALID,0,
2001-05-05, 00:48:00,VALID,918.315,VALID,0.2,VALID,98.3942,VALID,-0.0169808,VALID,20.9813,VALID,171,VALID,0,
2001-05-05, 00:49:00,VALID,918.314,VALID,0,VALID,98.3777,VALID,0,VALID,20.9453,VALID,171,VALID,0,
2001-05-05, 00:50:00,VALID,918.301,VALID,0,VALID,98.4171,VALID,-0.0169808,VALID,20.9523,VALID,171,VALID,0,
2001-05-05, 00:51:00,VALID,918.283,VALID,0,VALID,98.4591,VALID,-0.0339617,VALID,20.9555,VALID,171,VALID,0,
2001-05-05, 00:52:00,VALID,918.259,VALID,0,VALID,98.482,VALID,-0.0169808,VALID,20.9714,VALID,171,VALID,0,
2001-05-05, 00:53:01,VALID,918.235,VALID,0,VALID,98.5074,VALID,-0.0169808,VALID,20.9846,VALID,170,VALID,0,
2001-05-05, 00:54:00,VALID,918.231,VALID,0,VALID,98.4603,VALID,-0.0169808,VALID,20.9741,VALID,170,VALID,0,
2001-05-05, 00:55:00,VALID,918.203,VALID,0,VALID,98.4553,VALID,0,VALID,20.9641,VALID,170,VALID,0,
2001-05-05, 00:56:00,VALID,918.181,VALID,0.2,VALID,98.4565,VALID,-0.0509425,VALID,20.9749,VALID,168,VALID,0,
2001-05-05, 00:57:00,VALID,918.168,VALID,0,VALID,98.4998,VALID,-0.0339617,VALID,20.9781,VALID,165,VALID,0,
2001-05-05, 00:58:01,VALID,918.138,VALID,0,VALID,98.5125,VALID,0,VALID,20.9908,VALID,167,VALID,0,
2001-05-05, 00:59:00,VALID,918.111,VALID,0,VALID,98.4654,VALID,-0.0679233,VALID,20.9846,VALID,175,VALID,0,
2001-05-05, 01:00:01,VALID,918.089,VALID,0,VALID,98.501,VALID,0,VALID,20.9744,VALID,197,VALID,0,
2001-05-05, 01:01:00,VALID,918.072,VALID,0,VALID,98.5583,VALID,0,VALID,20.9972,VALID,201,VALID,0,
2001-05-05, 01:02:00,VALID,918.044,VALID,0.2,VALID,98.5341,VALID,0,VALID,20.9935,VALID,223,VALID,0,
2001-05-05, 01:03:00,VALID,918.022,VALID,0,VALID,98.5494,VALID,0,VALID,20.9937,VALID,232,VALID,0,
2001-05-05, 01:04:00,VALID,917.998,VALID,0,VALID,98.5265,VALID,0,VALID,20.9908,VALID,214,VALID,0,
2001-05-05, 01:05:01,VALID,917.975,VALID,0,VALID,98.515,VALID,0,VALID,20.9714,VALID,207,VALID,0,
2001-05-05, 01:06:00,VALID,917.97,VALID,0,VALID,98.5201,VALID,0,VALID,20.9552,VALID,200,VALID,0,
2001-05-05, 01:07:00,VALID,917.953,VALID,0,VALID,98.4781,VALID,0,VALID,20.9356,VALID,181,VALID,0,
2001-05-05, 01:08:01,VALID,917.945,VALID,0,VALID,98.4502,VALID,0,VALID,20.9331,VALID,181,VALID,0,
2001-05-05, 01:09:00,VALID,917.945,VALID,0,VALID,98.5074,VALID,0.0679233,VALID,20.9353,VALID,173,VALID,0,
2001-05-05, 01:10:00,VALID,917.942,VALID,0.2,VALID,98.4286,VALID,0,VALID,20.9262,VALID,169,VALID,0,
2001-05-05, 01:11:00,VALID,917.926,VALID,0,VALID,98.4311,VALID,0,VALID,20.913,VALID,169,VALID,0,
2001-05-05, 01:12:00,VALID,917.937,VALID,0,VALID,98.4375,VALID,0.0339617,VALID,20.9062,VALID,169,VALID,0,
2001-05-05, 01:13:01,VALID,917.939,VALID,0,VALID,98.4654,VALID,0,VALID,20.9057,VALID,169,VALID,0,
2001-05-05, 01:14:00,VALID,917.935,VALID,0,VALID,98.4985,VALID,0.0339617,VALID,20.9523,VALID,144,VALID,0,
2001-05-05, 01:15:01,VALID,917.934,VALID,0,VALID,98.5074,VALID,0.0849042,VALID,20.9485,VALID,90,VALID,0.0742188,
2001-05-05, 01:16:00,VALID,917.924,VALID,0,VALID,98.4273,VALID,0.0509425,VALID,20.9259,VALID,73,VALID,0.660684,
2001-05-05, 01:17:00,VALID,917.906,VALID,0.2,VALID,98.3319,VALID,0.0339617,VALID,20.871,VALID,49,VALID,0.763557,
2001-05-05, 01:18:00,VALID,917.896,VALID,0,VALID,98.3319,VALID,0.0339617,VALID,20.819,VALID,40,VALID,0.664474,
2001-05-05, 01:19:00,VALID,917.898,VALID,0,VALID,98.3472,VALID,0.0509425,VALID,20.7837,VALID,47,VALID,0.570946,
2001-05-05, 01:20:01,VALID,917.908,VALID,0,VALID,98.412,VALID,0.0509425,VALID,20.77,VALID,71,VALID,0.48972,
2001-05-05, 01:21:00,VALID,917.896,VALID,0,VALID,98.4603,VALID,0.0339617,VALID,20.7571,VALID,65,VALID,0.30701,
2001-05-05, 01:22:00,VALID,917.885,VALID,0,VALID,98.5036,VALID,0.0339617,VALID,20.7673,VALID,61,VALID,0.379018,
2001-05-05, 01:23:01,VALID,917.855,VALID,0,VALID,98.5392,VALID,0.0339617,VALID,20.7673,VALID,54,VALID,0.161258,
2001-05-05, 01:24:00,VALID,917.837,VALID,0,VALID,98.5989,VALID,0.0169808,VALID,20.7869,VALID,56,VALID,0.00094697,
2001-05-05, 01:25:00,VALID,917.817,VALID,0.2,VALID,98.66,VALID,0,VALID,20.8198,VALID,57,VALID,0.00111607,
2001-05-05, 01:26:00,VALID,917.814,VALID,0,VALID,98.6651,VALID,0,VALID,20.8163,VALID,20,VALID,0.111275,
2001-05-05, 01:27:00,VALID,917.8,VALID,0,VALID,98.6981,VALID,0.0509425,VALID,20.8389,VALID,26,VALID,0.097973,
2001-05-05, 01:28:01,VALID,917.803,VALID,0,VALID,98.6956,VALID,0.0509425,VALID,20.8225,VALID,41,VALID,0,
2001-05-05, 01:29:00,VALID,917.789,VALID,0,VALID,98.721,VALID,0.0509425,VALID,20.8322,VALID,51,VALID,0.00108507,
2001-05-05, 01:30:01,VALID,917.78,VALID,0,VALID,98.7693,VALID,0.0169808,VALID,20.8704,VALID,94,VALID,0.415707,
2001-05-05, 01:31:00,VALID,917.763,VALID,0,VALID,98.7617,VALID,0,VALID,20.8871,VALID,91,VALID,0.684333,
2001-05-05, 01:32:00,VALID,917.742,VALID,0,VALID,98.7757,VALID,0.0339617,VALID,20.9103,VALID,99,VALID,0.970358,
2001-05-05, 01:33:00,VALID,917.733,VALID,0,VALID,98.7604,VALID,0,VALID,20.8874,VALID,82,VALID,0.615337,
2001-05-05, 01:34:00,VALID,917.704,VALID,0.2,VALID,98.7185,VALID,0,VALID,20.8389,VALID,78,VALID,0.156883,
2001-05-05, 01:35:01,VALID,917.708,VALID,0,VALID,98.7185,VALID,0.0339617,VALID,20.826,VALID,87,VALID,0.413651,
2001-05-05, 01:36:00,VALID,917.704,VALID,0,VALID,98.7465,VALID,0.0169808,VALID,20.8459,VALID,91,VALID,0.39527,
2001-05-05, 01:37:00,VALID,917.721,VALID,0,VALID,98.796,VALID,0.0169808,VALID,20.8478,VALID,95,VALID,0.696205,
2001-05-05, 01:38:01,VALID,917.708,VALID,0,VALID,98.7566,VALID,0.0679233,VALID,20.8317,VALID,100,VALID,0.411058,
2001-05-05, 01:39:00,VALID,917.715,VALID,0,VALID,98.7782,VALID,0.0339617,VALID,20.8421,VALID,104,VALID,0.758286,
2001-05-05, 01:40:00,VALID,917.708,VALID,0,VALID,98.7821,VALID,0.0339617,VALID,20.8421,VALID,99,VALID,0.569866,
2001-05-05, 01:41:00,VALID,917.711,VALID,0,VALID,98.7884,VALID,0.0169808,VALID,20.8381,VALID,98,VALID,0.340372,
2001-05-05, 01:42:00,VALID,917.687,VALID,0,VALID,98.7083,VALID,0.0339617,VALID,20.7807,VALID,98,VALID,0.149493,
2001-05-05, 01:43:01,VALID,917.689,VALID,0,VALID,98.7223,VALID,0.0509425,VALID,20.7649,VALID,99,VALID,0,
2001-05-05, 01:44:00,VALID,917.671,VALID,0,VALID,98.763,VALID,0.0169808,VALID,20.7711,VALID,104,VALID,0,
2001-05-05, 01:45:01,VALID,917.657,VALID,0,VALID,98.8164,VALID,0.0509425,VALID,20.8028,VALID,104,VALID,0,
2001-05-05, 01:46:00,VALID,917.64,VALID,0.2,VALID,98.8202,VALID,0.0169808,VALID,20.816,VALID,104,VALID,0,
2001-05-05, 01:47:00,VALID,917.631,VALID,0,VALID,98.7782,VALID,0.0509425,VALID,20.7907,VALID,104,VALID,0,
2001-05-05, 01:48:00,VALID,917.609,VALID,0,VALID,98.796,VALID,0.0679233,VALID,20.7937,VALID,104,VALID,0,
2001-05-05, 01:49:00,VALID,917.594,VALID,0,VALID,98.7973,VALID,0.0509425,VALID,20.7802,VALID,105,VALID,0,
2001-05-05, 01:50:01,VALID,917.562,VALID,0,VALID,98.7808,VALID,0.0169808,VALID,20.7676,VALID,105,VALID,0,
2001-05-05, 01:51:00,VALID,917.547,VALID,0,VALID,98.7515,VALID,0,VALID,20.7616,VALID,105,VALID,0,
2001-05-05, 01:52:00,VALID,917.53,VALID,0,VALID,98.7363,VALID,0.0169808,VALID,20.7191,VALID,105,VALID,0,
2001-05-05, 01:53:01,VALID,917.516,VALID,0,VALID,98.6981,VALID,0.0339617,VALID,20.6932,VALID,105,VALID,0,
2001-05-05, 01:54:00,VALID,917.497,VALID,0,VALID,98.6028,VALID,-0.0849042,VALID,20.6272,VALID,105,VALID,0,
2001-05-05, 01:55:00,VALID,917.453,VALID,0,VALID,98.6015,VALID,-0.101885,VALID,20.6337,VALID,104,VALID,0,
2001-05-05, 01:56:00,VALID,917.424,VALID,0,VALID,98.6002,VALID,-0.101885,VALID,20.6366,VALID,104,VALID,0,
2001-05-05, 01:57:00,VALID,917.393,VALID,0,VALID,98.6078,VALID,-0.0339617,VALID,20.6426,VALID,104,VALID,0,
2001-05-05, 01:58:01,VALID,917.377,VALID,0,VALID,98.5913,VALID,-0.0169808,VALID,20.6364,VALID,104,VALID,0,
2001-05-05, 01:59:00,VALID,917.366,VALID,0,VALID,98.585,VALID,-0.101885,VALID,20.6332,VALID,104,VALID,0,
2001-05-05, 02:00:01,VALID,917.331,VALID,0,VALID,98.5939,VALID,-0.0339617,VALID,20.6361,VALID,104,VALID,0,
2001-05-05, 02:01:00,VALID,917.302,VALID,0.2,VALID,98.5989,VALID,-0.0509425,VALID,20.6396,VALID,104,VALID,0,
2001-05-05, 02:02:01,VALID,917.261,VALID,0,VALID,98.585,VALID,-0.0509425,VALID,20.6563,VALID,104,VALID,0,
2001-05-05, 02:03:01,VALID,917.239,VALID,0,VALID,98.5379,VALID,-0.101885,VALID,20.6332,VALID,104,VALID,0,
2001-05-05, 02:04:00,VALID,917.229,VALID,0,VALID,98.5303,VALID,-0.0679233,VALID,20.6496,VALID,104,VALID,0,
2001-05-05, 02:05:01,VALID,917.207,VALID,0,VALID,98.5354,VALID,-0.101885,VALID,20.6528,VALID,104,VALID,0,
2001-05-05, 02:06:00,VALID,917.201,VALID,0,VALID,98.5099,VALID,-0.0339617,VALID,20.6493,VALID,104,VALID,0,
2001-05-05, 02:07:01,VALID,917.183,VALID,0.2,VALID,98.4667,VALID,-0.101885,VALID,20.6399,VALID,104,VALID,0,
2001-05-05, 02:08:01,VALID,917.175,VALID,0,VALID,98.4336,VALID,-0.0679233,VALID,20.6369,VALID,104,VALID,0,
2001-05-05, 02:09:01,VALID,917.149,VALID,0,VALID,98.4349,VALID,0.0169808,VALID,20.6324,VALID,104,VALID,0,
2001-05-05, 02:10:01,VALID,917.143,VALID,0,VALID,98.4095,VALID,0.0339617,VALID,20.6127,VALID,104,VALID,0,
2001-05-05, 02:11:00,VALID,917.11,VALID,0,VALID,98.3256,VALID,0.0169808,VALID,20.5807,VALID,96,VALID,0.616554,
2001-05-05, 02:12:00,VALID,917.112,VALID,0.2,VALID,98.2442,VALID,0,VALID,20.5419,VALID,88,VALID,0.723818,
2001-05-05, 02:13:01,VALID,917.112,VALID,0,VALID,98.1132,VALID,0.0169808,VALID,20.4967,VALID,85,VALID,0.717722,
2001-05-05, 02:14:01,VALID,917.097,VALID,0,VALID,98.0267,VALID,0,VALID,20.4485,VALID,82,VALID,0.738498,
2001-05-05, 02:15:01,VALID,917.091,VALID,0,VALID,98.0064,VALID,0,VALID,20.4194,VALID,76,VALID,0.534128,
2001-05-05, 02:16:01,VALID,917.078,VALID,0,VALID,98.0763,VALID,0,VALID,20.4129,VALID,94,VALID,0.716005,
2001-05-05, 02:17:00,VALID,917.074,VALID,0,VALID,98.0547,VALID,0,VALID,20.3871,VALID,85,VALID,0.982767,
2001-05-05, 02:18:01,VALID,917.045,VALID,0,VALID,98.0356,VALID,0,VALID,20.3548,VALID,83,VALID,0.863898,
2001-05-05, 02:19:00,VALID,917.022,VALID,0,VALID,98.1437,VALID,0,VALID,20.3451,VALID,92,VALID,0.830236,
2001-05-05, 02:20:01,VALID,917.007,VALID,0,VALID,98.1374,VALID,0,VALID,20.3225,VALID,91,VALID,0.898438,
2001-05-05, 02:21:01,VALID,916.981,VALID,0,VALID,98.2404,VALID,0.0169808,VALID,20.3068,VALID,75,VALID,0.506546,
2001-05-05, 02:22:01,VALID,916.971,VALID,0.2,VALID,98.2772,VALID,0,VALID,20.2802,VALID,77,VALID,0.129911,
2001-05-05, 02:23:01,VALID,916.932,VALID,0,VALID,98.3497,VALID,0,VALID,20.2869,VALID,90,VALID,0.115986,
2001-05-05, 02:24:01,VALID,916.915,VALID,0,VALID,98.3866,VALID,0,VALID,20.2807,VALID,110,VALID,0.448864,
2001-05-05, 02:25:01,VALID,916.871,VALID,0,VALID,98.4527,VALID,0.0169808,VALID,20.28,VALID,112,VALID,0.236161,
2001-05-05, 02:26:01,VALID,916.846,VALID,0,VALID,98.5265,VALID,0.0169808,VALID,20.2969,VALID,112,VALID,0.0287162,
2001-05-05, 02:27:01,VALID,916.82,VALID,0,VALID,98.5684,VALID,0,VALID,20.2902,VALID,112,VALID,0.145481,
2001-05-05, 02:28:01,VALID,916.8,VALID,0,VALID,98.6244,VALID,0,VALID,20.3125,VALID,112,VALID,0.00246711,
2001-05-05, 02:29:01,VALID,916.795,VALID,0,VALID,98.6358,VALID,0,VALID,20.3125,VALID,112,VALID,0,
2001-05-05, 02:30:01,VALID,916.787,VALID,0,VALID,98.6346,VALID,0,VALID,20.3098,VALID,112,VALID,0,
2001-05-05, 02:31:01,VALID,916.771,VALID,0,VALID,98.646,VALID,0,VALID,20.3133,VALID,115,VALID,0,
2001-05-05, 02:32:01,VALID,916.762,VALID,0,VALID,98.6574,VALID,0,VALID,20.3101,VALID,188,VALID,0.0390625,
2001-05-05, 02:33:01,VALID,916.762,VALID,0,VALID,98.6117,VALID,0,VALID,20.2902,VALID,190,VALID,0.0191201,
2001-05-05, 02:34:01,VALID,916.768,VALID,0,VALID,98.5977,VALID,0.0169808,VALID,20.2643,VALID,190,VALID,0.12141,
2001-05-05, 02:35:01,VALID,916.782,VALID,0,VALID,98.5722,VALID,0,VALID,20.2422,VALID,187,VALID,0.217722,
2001-05-05, 02:36:01,VALID,916.783,VALID,0,VALID,98.6282,VALID,-0.0169808,VALID,20.2221,VALID,177,VALID,0.362753,
2001-05-05, 02:37:01,VALID,916.789,VALID,0,VALID,98.7083,VALID,-0.0169808,VALID,20.2653,VALID,135,VALID,0.637054,
2001-05-05, 02:38:01,VALID,916.788,VALID,0,VALID,98.6943,VALID,0,VALID,20.2522,VALID,124,VALID,0.676883,
2001-05-05, 02:39:01,VALID,916.8,VALID,0,VALID,98.6969,VALID,0,VALID,20.2489,VALID,116,VALID,0.584991,
2001-05-05, 02:40:01,VALID,916.797,VALID,0,VALID,98.7159,VALID,0.0169808,VALID,20.2586,VALID,116,VALID,0.723661,
2001-05-05, 02:41:00,VALID,916.776,VALID,0,VALID,98.6829,VALID,0,VALID,20.2328,VALID,109,VALID,0.929899,
2001-05-05, 02:42:00,VALID,916.754,VALID,0,VALID,98.6714,VALID,0,VALID,20.2164,VALID,115,VALID,0.979096,
2001-05-05, 02:43:00,VALID,916.733,VALID,0,VALID,98.7185,VALID,0.0169808,VALID,20.2198,VALID,106,VALID,0.517064,
2001-05-05, 02:44:00,VALID,916.71,VALID,0,VALID,98.749,VALID,0,VALID,20.243,VALID,108,VALID,0.559245,
2001-05-05, 02:45:00,VALID,916.697,VALID,0,VALID,98.7452,VALID,0,VALID,20.2069,VALID,115,VALID,0.51398,
2001-05-05, 02:46:00,VALID,916.682,VALID,0,VALID,98.7325,VALID,0,VALID,20.2034,VALID,116,VALID,0.0910051,
2001-05-05, 02:47:00,VALID,916.66,VALID,0,VALID,98.7795,VALID,0,VALID,20.2231,VALID,116,VALID,0.042739,
2001-05-05, 02:48:00,VALID,916.645,VALID,0,VALID,98.7846,VALID,0.0169808,VALID,20.2357,VALID,116,VALID,0.420436,
2001-05-05, 02:49:00,VALID,916.606,VALID,0,VALID,98.7477,VALID,0.0339617,VALID,20.2069,VALID,114,VALID,0.74641,
2001-05-05, 02:50:00,VALID,916.583,VALID,0,VALID,98.7287,VALID,0,VALID,20.1768,VALID,101,VALID,0.465461,
2001-05-05, 02:51:00,VALID,916.586,VALID,0,VALID,98.7897,VALID,0.0169808,VALID,20.2099,VALID,92,VALID,0.430321,
2001-05-05, 02:52:00,VALID,916.591,VALID,0,VALID,98.7744,VALID,0,VALID,20.2032,VALID,89,VALID,0.33125,
2001-05-05, 02:53:00,VALID,916.581,VALID,0,VALID,98.763,VALID,0,VALID,20.2007,VALID,75,VALID,0.395433,
2001-05-05, 02:54:00,VALID,916.589,VALID,0,VALID,98.7681,VALID,0.0169808,VALID,20.1704,VALID,72,VALID,0.381866,
2001-05-05, 02:55:00,VALID,916.573,VALID,0,VALID,98.7719,VALID,0,VALID,20.1671,VALID,48,VALID,0.244643,
2001-05-05, 02:56:00,VALID,916.575,VALID,0,VALID,98.7782,VALID,0.0339617,VALID,20.1542,VALID,45,VALID,0.379434,
2001-05-05, 02:57:00,VALID,916.576,VALID,0,VALID,98.8215,VALID,0.0509425,VALID,20.1739,VALID,82,VALID,0.858319,
2001-05-05, 02:58:00,VALID,916.577,VALID,0,VALID,98.8253,VALID,0.0509425,VALID,20.1776,VALID,83,VALID,0.896793,
2001-05-05, 02:59:00,VALID,916.566,VALID,0,VALID,98.8393,VALID,0.0169808,VALID,20.1739,VALID,71,VALID,1.25174,
2001-05-05, 03:00:00,VALID,916.581,VALID,0,VALID,98.8482,VALID,0.0339617,VALID,20.1711,VALID,91,VALID,0.914885,
2001-05-05, 03:01:00,VALID,916.573,VALID,0,VALID,98.8647,VALID,0.0339617,VALID,20.1803,VALID,89,VALID,1.44278,
2001-05-05, 03:02:00,VALID,916.555,VALID,0,VALID,98.9003,VALID,0.0339617,VALID,20.1962,VALID,91,VALID,1.10202,
2001-05-05, 03:03:00,VALID,916.541,VALID,0,VALID,98.9029,VALID,0,VALID,20.1935,VALID,82,VALID,1.17146,
2001-05-05, 03:04:00,VALID,916.529,VALID,0,VALID,98.8851,VALID,0,VALID,20.1838,VALID,87,VALID,1.27344,
2001-05-05, 03:05:00,VALID,916.539,VALID,0,VALID,98.8609,VALID,0.0169808,VALID,20.1547,VALID,84,VALID,1.09313,
2001-05-05, 03:06:00,VALID,916.549,VALID,0,VALID,98.8634,VALID,0,VALID,20.1326,VALID,70,VALID,0.65984,
2001-05-05, 03:07:00,VALID,916.54,VALID,0,VALID,98.8889,VALID,0.0339617,VALID,20.1289,VALID,89,VALID,0.809375,
2001-05-05, 03:08:00,VALID,916.531,VALID,0,VALID,98.913,VALID,0.0169808,VALID,20.1222,VALID,79,VALID,0.832332,
2001-05-05, 03:09:00,VALID,916.528,VALID,0,VALID,98.8876,VALID,-0.0849042,VALID,20.104,VALID,70,VALID,0.661222,
2001-05-05, 03:10:00,VALID,916.505,VALID,0,VALID,98.9143,VALID,-0.0679233,VALID,20.114,VALID,98,VALID,0.513393,
2001-05-05, 03:11:00,VALID,916.496,VALID,0,VALID,98.941,VALID,-0.0849042,VALID,20.1336,VALID,82,VALID,0.765625,
2001-05-05, 03:12:00,VALID,916.497,VALID,0,VALID,98.9321,VALID,-0.0679233,VALID,20.0976,VALID,86,VALID,0.904561,
2001-05-05, 03:13:00,VALID,916.502,VALID,0,VALID,98.9461,VALID,-0.0849042,VALID,20.1147,VALID,91,VALID,0.277344,
2001-05-05, 03:14:00,VALID,916.512,VALID,0,VALID,98.9703,VALID,-0.101885,VALID,20.1274,VALID,99,VALID,0.33355,
2001-05-05, 03:15:00,VALID,916.5,VALID,0,VALID,99.002,VALID,-0.101885,VALID,20.15,VALID,107,VALID,0.549137,
2001-05-05, 03:16:00,VALID,916.485,VALID,0,VALID,99.0364,VALID,-0.0679233,VALID,20.1948,VALID,103,VALID,0.589316,
2001-05-05, 03:17:00,VALID,916.452,VALID,0,VALID,99.0466,VALID,-0.101885,VALID,20.2467,VALID,100,VALID,0.584559,
2001-05-05, 03:18:00,VALID,916.462,VALID,0,VALID,99.0237,VALID,-0.0509425,VALID,20.2402,VALID,99,VALID,0.139597,
2001-05-05, 03:19:00,VALID,916.466,VALID,0,VALID,99.0122,VALID,-0.101885,VALID,20.2335,VALID,99,VALID,0.139992,
2001-05-05, 03:20:00,VALID,916.492,VALID,0,VALID,99.0008,VALID,-0.0679233,VALID,20.2144,VALID,99,VALID,0,
2001-05-05, 03:21:00,VALID,916.507,VALID,0,VALID,99.002,VALID,-0.101885,VALID,20.2181,VALID,99,VALID,0.000844595,
2001-05-05, 03:22:00,VALID,916.498,VALID,0,VALID,99.016,VALID,-0.0849042,VALID,20.2112,VALID,99,VALID,0.0526786,
2001-05-05, 03:23:00,VALID,916.496,VALID,0,VALID,99.0148,VALID,-0.0679233,VALID,20.2206,VALID,98,VALID,0.339744,
2001-05-05, 03:24:00,VALID,916.501,VALID,0,VALID,99.0427,VALID,-0.0849042,VALID,20.2567,VALID,98,VALID,0.107008,
2001-05-05, 03:25:00,VALID,916.502,VALID,0,VALID,99.0249,VALID,-0.0849042,VALID,20.2306,VALID,98,VALID,0.0176339,
2001-05-05, 03:26:00,VALID,916.516,VALID,0,VALID,99.0071,VALID,-0.101885,VALID,20.1823,VALID,97,VALID,0.267525,
2001-05-05, 03:27:00,VALID,916.521,VALID,0,VALID,99.0249,VALID,-0.101885,VALID,20.2144,VALID,108,VALID,0.40076,
2001-05-05, 03:28:00,VALID,916.542,VALID,0,VALID,99.0262,VALID,-0.0849042,VALID,20.2141,VALID,108,VALID,0.212582,
2001-05-05, 03:29:00,VALID,916.534,VALID,0,VALID,99.0224,VALID,-0.0849042,VALID,20.2276,VALID,108,VALID,0,
2001-05-05, 03:30:00,VALID,916.549,VALID,0,VALID,99.0249,VALID,-0.0849042,VALID,20.2276,VALID,108,VALID,0,
2001-05-05, 03:31:00,VALID,916.569,VALID,0,VALID,99.0198,VALID,-0.0849042,VALID,20.2147,VALID,98,VALID,0.103252,
2001-05-05, 03:32:00,VALID,916.6,VALID,0,VALID,98.9957,VALID,-0.101885,VALID,20.1562,VALID,91,VALID,0.137868,
2001-05-05, 03:33:00,VALID,916.604,VALID,0,VALID,98.9855,VALID,-0.101885,VALID,20.1279,VALID,91,VALID,0,
2001-05-05, 03:34:00,VALID,916.588,VALID,0,VALID,99.002,VALID,-0.101885,VALID,20.1307,VALID,91,VALID,0,
2001-05-05, 03:35:00,VALID,916.558,VALID,0,VALID,99.0224,VALID,-0.0849042,VALID,20.1433,VALID,91,VALID,0.0370066,
2001-05-05, 03:36:00,VALID,916.55,VALID,0,VALID,99.0173,VALID,-0.101885,VALID,20.1309,VALID,82,VALID,0.0785473,
2001-05-05, 03:37:00,VALID,916.547,VALID,0,VALID,99.0084,VALID,-0.118866,VALID,20.1018,VALID,352,VALID,0.149777,
2001-05-05, 03:38:00,VALID,916.535,VALID,0,VALID,99.0059,VALID,-0.101885,VALID,20.0954,VALID,310,VALID,0.0232372,